This is the latest recevied weather packets stored in our database for station/object N7CEE. If no packets are shown the sender has not sent any weather packets the latest 10 day(s).
| Time | Temp. | Humidity | Pressure | Rain* | Wind** | Luminosity | Snow |
|---|---|---|---|---|---|---|---|
| 1777752849 | 19.44° C | 23% | 1026.7 hPa | 0 mm | - | 778 W/m² | - |
| 1777752547 | 18.89° C | 24% | 1026.6 hPa | 0 mm | - | 831 W/m² | - |
| 1777752242 | 19.44° C | 23% | 1026.5 hPa | 0 mm | - | 838 W/m² | - |
| 1777751940 | 18.89° C | 24% | 1026.7 hPa | 0 mm | - | 842 W/m² | - |
| 1777751636 | 18.89° C | 24% | 1026.6 hPa | 0 mm | - | 842 W/m² | - |
| 1777751333 | 18.89° C | 24% | 1026.7 hPa | 0 mm | - | 821 W/m² | - |
| 1777751030 | 18.89° C | 24% | 1026.8 hPa | 0 mm | - | 842 W/m² | - |
| 1777750726 | 18.89° C | 23% | 1027 hPa | 0 mm | - | 872 W/m² | - |
| 1777750423 | 18.89° C | 24% | 1027 hPa | 0 mm | - | 840 W/m² | - |
| 1777750119 | 18.33° C | 24% | 1027.2 hPa | 0 mm | - | 851 W/m² | - |
| 1777749816 | 17.78° C | 24% | 1027 hPa | 0 mm | - | 853 W/m² | - |
| 1777749513 | 17.22° C | 25% | 1027 hPa | 0 mm | - | 798 W/m² | - |
| 1777749211 | 17.78° C | 24% | 1027.2 hPa | 0 mm | - | 843 W/m² | - |
| 1777748908 | 17.78° C | 24% | 1027.4 hPa | 0 mm | - | 854 W/m² | - |
| 1777748605 | 18.33° C | 24% | 1027.2 hPa | 0 mm | - | 848 W/m² | - |
| 1777748301 | 17.78° C | 24% | 1027.4 hPa | 0 mm | - | 833 W/m² | - |
| 1777747996 | 17.22° C | 24% | 1027.4 hPa | 0 mm | - | 845 W/m² | - |
| 1777747693 | 16.67° C | 24% | 1027.6 hPa | 0 mm | - | 833 W/m² | - |
| 1777747383 | 17.22° C | 23% | 1027.7 hPa | 0 mm | - | 801 W/m² | - |
| 1777747080 | 17.22° C | 24% | 1027.8 hPa | 0 mm | - | 829 W/m² | - |
| 1777746776 | 17.22° C | 23% | 1027.7 hPa | 0 mm | - | 829 W/m² | - |
| 1777746472 | 17.22° C | 23% | 1027.8 hPa | 0 mm | - | 827 W/m² | - |
| 1777746168 | 17.78° C | 23% | 1027.7 hPa | 0 mm | - | 820 W/m² | - |
| 1777745864 | 16.67° C | 26% | 1027.7 hPa | 0 mm | - | 814 W/m² | - |
| 1777745563 | 16.67° C | 25% | 1027.8 hPa | 0 mm | - | 808 W/m² | - |
* Rain latest hour (hover to see other rain measurements)
** Current wind speed in m/s (hover to see current wind gust speed)